Location: Alladorf
(49.9620°N, 11.3790°E)
Time: 20:55:00
(UTC+00:00)

Cosmos 1766 Rocket - Pass Details

Date: 29 November 2020
Orbit: 605 x 633 km, 82.5° (Epoch: 24 January)

Event Time Altitude Azimuth Distance (km) Brightness Sun altitude
Exits shadow 04:58:03 30° 305° (NW) 1,131 4.4 -17.1°
Drops below altitude 10° 05:01:28 10° 353° (N) 2,025 6.0 -16.6°
Sets 05:03:56 0° 3° (N) 2,935 6.9 -16.2°
